Location: Unspecified
(0.0000°N, 0.0000°E)
Time: 15:01:58
(UTC+00:00)

deb Midas V - Pass Details

Date: 15 April 2026
Orbit: 2771 x 3389 km, 86.6° (Epoch: 16 May)

Event Time Altitude Azimuth Distance (km) Brightness Sun altitude
Rises 18:17:34 0° 3° (N) 7,376 ? -4.3°
Reaches altitude 10° 18:21:49 10° 5° (N) 6,324 ? -5.4°
Maximum altitude 18:39:27 83° 93° (E) 3,225 ? -9.7°
Drops below altitude 10° 18:55:38 10° 179° (S) 5,867 ? -13.7°
Sets 18:59:23 0° 179° (S) 6,830 ? -14.6°
